Location: Ciula Mare
(45.6000°N, 22.8167°E)
Time: 10:16:40
(UTC+00:00)

CZ-4 R/B - Pass Details

Date: 03 February 2023
Orbit: 525 x 587 km, 97.7° (Epoch: 20 March)

Event Time Altitude Azimuth Distance (km) Brightness Sun altitude
Rises 16:26:12 0° 127° (SE) 2,802 4.6 -8.9°
Reaches altitude 10° 16:28:51 10° 110° (ESE) 1,899 3.6 -9.3°
Maximum altitude 16:31:45 19° 65° (ENE) 1,405 2.8 -9.8°
Drops below altitude 10° 16:34:38 10° 20° (NNE) 1,886 3.7 -10.3°
Sets 16:37:15 0° 2° (N) 2,777 4.8 -10.8°
